Location: Madden
(51.3728°N, 114.3297°W)
Time: 19:12:27
(UTC+00:00)

CUTE-I - Pass Details

Date: 08 December 2023
Orbit: 807 x 822 km, 98.7° (Epoch: 21 February)

Event Time Altitude Azimuth Distance (km) Brightness Sun altitude
Rises 00:21:43 0° 150° (SSE) 3,319 ? -7.7°
Reaches altitude 10° 00:24:03 10° 147° (SSE) 2,394 ? -8.1°
Maximum altitude 00:29:15 59° 69° (ENE) 936 ? -8.8°
Drops below altitude 10° 00:34:30 10° 351° (N) 2,420 ? -9.5°
Sets 00:36:53 0° 348° (NNW) 3,359 ? -9.9°
